Location: ????? ???
(30.7328°N, 60.5484°E)
Time: 18:50:38
(UTC+00:00)

Daily predictions for brighter satellites

Satellite Brightness Start Highest point End
(mag) Time Altitude Azimuth Time Altitude Azimuth Time Altitude Azimuth
Cosmos 2219 Rocket 3.7 14:17:54 10° SE 14:20:41 14° E 14:23:27 10° ENE
Hubble Space Telescope 3.0 14:19:01 10° S 14:20:43 12° SSE 14:22:26 10° SE
Meteor 1-27 Rocket 4.1 14:16:00 10° NNW 14:21:31 71° W 14:27:04 10° S
Lacrosse 4 Rocket 3.4 14:20:36 10° SE 14:22:08 12° ESE 14:23:40 10° E
Cosmos 2227 4.2 14:18:58 10° NNW 14:24:42 65° ENE 14:30:22 10° SSE
YAOGAN 1 3.1 14:21:14 10° SE 14:25:10 36° ENE 14:29:07 10° N
Cosmos 1689 Rocket 2.3 14:23:02 10° NNE 14:25:47 41° E 14:28:31 10° S
SL-16 R/B 3.0 14:21:38 10° SSW 14:27:12 58° WNW 14:32:47 10° N
Helios 1A Rocket 4.2 14:24:25 10° ESE 14:27:22 20° ENE 14:30:18 10° NNE
Cosmos 2184 Rocket 4.1 14:22:19 10° S 14:28:27 84° W 14:34:40 10° N
USA 234 3.3 14:22:19 10° NE 14:28:50 69° SE 14:35:20 10° SSW
ARGOS 3.8 14:24:46 10° SE 14:29:33 33° ENE 14:34:21 10° N
TSX-5 4.3 14:26:10 10° NNW 14:29:39 51° WSW 14:32:44 10° S
Cosmos 1992 Rocket 4.0 14:24:51 10° SSW 14:30:03 82° ESE 14:35:18 10° NNE
GP-B 4.3 14:28:36 10° SE 14:31:54 21° E 14:35:13 10° NNE
CZ-4 R/B 4.4 14:27:53 10° SSE 14:32:02 87° ENE 14:36:12 10° N
APEX 2.9 14:29:45 10° N 14:32:17 35° ENE 14:34:52 10° SE
Cosmos 2263 Rocket 2.2 14:30:32 10° NNW 14:36:07 89° ENE 14:41:41 10° SSE
Cosmos 2322 4.4 14:34:48 10° SSE 14:39:42 30° ESE 14:44:38 10° NE
Cosmos 968 Rocket 3.7 14:35:22 10° N 14:40:29 50° ENE 14:45:33 10° SSE
H-2A R/B 2.1 14:37:09 10° SSE 14:42:31 69° ENE 14:47:57 10° N
Cosmos 1486 Rocket 4.3 14:38:29 10° N 14:43:35 46° ENE 14:48:39 10° SE
Cosmos 1633 Rocket 4.0 14:39:53 10° SSW 14:44:10 52° W 14:48:30 10° N
IRS-1C Rocket 4.1 14:40:22 10° SSE 14:45:37 90° NNE 14:50:55 10° NNW
Cosmos 2237 4.4 14:40:28 10° SSW 14:46:11 81° WNW 14:51:56 10° NNE
SeaSat 1 2.5 14:42:12 10° NNE 14:47:09 87° WNW 14:52:04 10° SSW
CZ-2C R/B 2.6 14:44:09 10° NNE 14:49:31 62° E 14:54:44 10° S
CZ-4 R/B 1.3 14:48:02 10° S 14:51:52 83° W 14:55:44 10° NNW
Okean 1 3.2 14:49:22 10° N 14:53:22 65° E 14:57:22 10° SSE
Okean 1-7 4.3 14:51:16 10° NNE 14:54:30 20° ENE 14:54:52 20° E
Cosmos 1515 3.5 14:50:57 10° N 14:54:46 71° E 14:58:32 10° SSE
DMSP B5D2-2 4.3 14:52:09 10° NNE 14:57:07 44° E 15:02:03 10° S
Cosmos 1869 Rocket 4.4 14:57:13 10° SSE 15:00:51 27° E 15:04:30 10° NNE
CSL-04 Rocket 3.8 14:56:19 10° SSE 15:01:42 53° ENE 15:07:04 10° N
CSL-04 Debris 4.2 14:57:35 10° SSE 15:02:53 59° ENE 15:08:14 10° N
Cosmos 2341 Rocket 4.0 14:57:02 10° S 15:03:14 60° E 15:09:25 10° NNE
Okean-O 2.9 15:04:06 10° S 15:08:30 69° WSW 15:12:55 10° NNW
ATLAS CENTAUR R/B 3.1 15:05:28 10° WSW 15:08:36 27° WNW 15:11:45 10° N
Meteor 1-5 Rocket 4.0 15:04:15 10° S 15:09:29 68° E 15:14:53 10° NNE
Cosmos 1354 Rocket 4.5 15:05:17 10° N 15:10:08 37° ENE 15:12:28 25° ESE
Cosmos 2333 4.1 15:04:38 10° S 15:10:12 69° ESE 15:15:50 10° NNE
BREEZE-M DEB (TANK) 4.3 15:07:57 10° WSW 15:10:22 28° NW 15:11:47 16° NNE
SWIFT 4.1 15:07:55 10° SW 15:10:55 19° S 15:12:22 16° SSE
Cosmos 1844 Rocket 3.4 15:06:16 10° N 15:11:12 31° ENE 15:12:40 27° E
CREW DRAGON DEMO-1 DEB 4.1 15:08:44 10° SSW 15:10:26 25° SSE 15:10:26 25° SSE
Cosmos 44 Rocket 3.4 15:09:36 10° NNW 15:14:46 59° ENE 15:17:48 24° SE
Cosmos 2360 Rocket 3.1 15:11:21 10° SW 15:16:48 51° WNW 15:22:17 10° N
Cosmos 1666 2.4 15:16:15 10° S 15:19:56 73° E 15:23:38 10° N
Ariane Rocket 4.4 15:21:41 20° NE 15:21:41 20° NE 15:24:08 10° NNE
Cosmos 1503 Rocket 4.0 15:15:23 10° N 15:20:28 57° ENE 15:23:37 23° SE
Cosmos 2084 Rocket 4.0 15:17:19 10° NNW 15:21:29 39° ENE 15:21:48 39° ENE
Cosmos 2218 Rocket 4.1 15:15:52 10° SSE 15:22:02 53° E 15:28:13 10° NNE
Cosmos 1844 4.3 15:17:27 10° N 15:22:35 33° ENE 15:23:03 32° ENE
HJ-1C 4.4 15:21:48 10° S 15:25:01 47° W 15:28:14 10° NNW
Cosmos 2333 Rocket 2.1 15:20:42 10° SSW 15:26:20 75° ESE 15:32:01 10° NNE
SME Rocket 3.7 15:19:56 10° NNE 15:26:29 58° E 15:30:57 10° S
DELTA 2 R/B (1) 3.5 15:20:56 10° WSW 15:26:30 89° N 15:28:52 36° ENE
Meteor 2-4 Rocket 3.7 15:28:35 10° N 15:34:29 85° E 15:40:25 10° S
SL-08 RB Rocket 3.9 15:31:34 10° S 15:36:01 68° W 15:40:31 10° NNW
Cosmos 864 Rocket 4.3 15:33:09 10° S 15:39:13 70° E 15:45:21 10° N
Cosmos 1703 Rocket 3.4 15:39:56 10° N 15:44:19 89° W 15:44:53 67° S
Cosmos 1959 Rocket 4.3 15:38:34 10° S 15:44:39 82° E 15:50:46 10° N
COSMOS 2428 2.7 15:50:42 10° SSW 15:56:22 82° WNW 16:00:08 22° NNE
Lacrosse 4 Rocket 2.5 15:56:09 10° SW 16:00:18 45° WNW 16:01:33 35° NNW
Hubble Space Telescope 2.7 15:57:38 10° SW 15:59:27 22° SW 15:59:27 22° SW
Meteor 1-11 Rocket 3.9 15:56:29 10° SSW 16:02:14 70° W 16:07:54 10° N
Cosmos 2219 Rocket 2.7 15:58:34 10° SW 16:04:01 56° WNW 16:09:31 10° N
MetOp-A 4.3 16:04:15 48° S 16:05:41 71° WSW 16:11:02 10° NNW
USA 238 DEB 3.7 16:00:34 10° SSW 16:05:41 55° SSE 16:05:41 55° SSE
USA 238 3.8 16:00:39 10° SSW 16:05:43 54° SSE 16:05:43 54° SSE
Delta 7925 Rocket 4.3 16:05:24 10° W 16:08:36 37° SW 16:08:36 37° SW
ASTEX 1 4.4 16:07:59 10° N 16:11:00 37° NNW 16:11:00 37° NNW
Delta 2 Rocket 4.3 16:09:22 10° WSW 16:14:29 50° SSW 16:14:29 50° SSW
ATLAS 2A CENTAUR R/B 4.5 16:03:41 10° W 16:43:02 49° SW 16:46:41 39° S
ATLAS 2A CENTAUR R/B 4.2 16:16:57 10° WSW 16:50:28 71° S 16:50:28 71° S
Kakehashi 4.4 23:24:27 70° ESE 23:24:27 70° ESE 23:36:05 10° E
SL-16 R/B 4.1 23:24:19 18° NNE 23:26:56 25° ENE 23:31:33 10° ESE
ATLAS CENTAUR R/B 4.5 23:40:07 11° ESE 23:40:07 11° ESE 23:40:16 10° ESE
